Location: D�rnast
(49.6426°N, 11.9755°E)
Time: 05:06:10
(UTC+00:00)

ISS - Pass Details

Date: 02 December 2021
Orbit: 413 x 423 km, 51.6° (Epoch: 18 January)

Event Time Altitude Azimuth Distance (km) Brightness Sun altitude
Rises 16:49:12 0° 285° (WNW) 2,385 1.1 -14.7°
Reaches altitude 10° 16:51:19 10° 287° (WNW) 1,516 -0.1 -15.0°
Maximum altitude 16:54:43 78° 14° (NNE) 437 -3.8 -15.5°
Enters shadow 16:56:00 35° 96° (E) 698 -3.2 -15.7°
